User: anonymous   Login
Location: D�derode
(51.8092°N, 10.1065°E)
Time: 07:14:07
(UTC+00:00)
Language:

TIMED - Orbit

View from above orbital plane
View from above orbital plane
View from above satellite
View from above satellite

Ground track
Ground track

The orbit data is extracted from the following two-line orbital elements,

1 26998U 01055B   21057.69984910  .00000211  00000-0  26873-4 0  9990
2 26998  74.0730 147.0416 0001403 231.8008 128.3047 14.88273563 42266
Epoch (UTC): 26 February 2021 16:47:46
Eccentricity: 0.0001403
inclination: 74.0730°
perigee height: 602 km
apogee height: 604 km
right ascension of ascending node: 147.0416°
argument of perigee: 231.8008°
revolutions per day: 14.88273563
mean anomaly at epoch: 128.3047°
orbit number at epoch: 4226

The dashed part of the orbit path shows where the satellite is in the earth's shadow,  

DLR